QPF
0.00 0.00 0.00 0.01 0.03 0.06 0.03 0.01 0.00 0.00 0.00 0.00 0.00 0.00 0.00 0.00 0.02 0.03 0.03 0.02 0.02 0.00 0.01 0.03 0.04 0.02 0.02 0.01 0.01 0.01 0.03 0.04 0.04 0.04 0.03 0.05 0.08 0.08 0.07 0.08 0.09 0.09 0.07 0.09 0.13 0.17 0.22 0.28 0.28
0.00 0.00 0.01 0.03 0.07 0.04 0.02 0.01 0.00 0.00 0.00 0.00 0.00 0.00 0.00 0.01 0.05 0.07 0.05 0.01 0.03 0.02 0.01 0.02 0.04 0.02 0.02 0.02 0.02 0.02 0.04 0.05 0.04 0.04 0.05 0.05 0.07 0.07 0.05 0.05 0.08 0.10 0.09 0.10 0.11 0.12 0.15 0.19 0.18
0.00 0.00 0.01 0.05 0.06 0.03 0.03 0.01 0.00 0.00 0.00 0.00 0.00 0.00 0.01 0.04 0.12 0.14 0.06 0.02 0.05 0.04 0.02 0.00 0.02 0.03 0.03 0.02 0.02 0.04 0.05 0.05 0.04 0.04 0.05 0.05 0.06 0.08 0.06 0.04 0.04 0.07 0.10 0.13 0.11 0.11 0.12 0.13 0.14
0.00 0.00 0.02 0.03 0.03 0.01 0.01 0.01 0.00 0.00 0.00 0.00 0.00 0.00 0.02 0.08 0.18 0.17 0.04 0.03 0.08 0.04 0.02 0.00 0.01 0.01 0.01 0.01 0.02 0.03 0.04 0.05 0.04 0.04 0.04 0.05 0.05 0.08 0.09 0.08 0.08 0.10 0.15 0.15 0.14 0.12 0.10 0.10 0.13
0.00 0.00 0.03 0.04 0.01 0.00 0.00 0.00 0.00 0.00 0.00 0.00 0.00 0.00 0.02 0.08 0.14 0.13 0.06 0.07 0.08 0.05 0.03 0.02 0.00 0.01 0.01 0.01 0.02 0.02 0.03 0.04 0.04 0.04 0.05 0.07 0.07 0.07 0.11 0.16 0.17 0.18 0.19 0.19 0.16 0.11 0.08 0.09 0.11
0.00 0.01 0.02 0.02 0.01 0.00 0.00 0.00 0.00 0.01 0.01 0.00 0.00 0.00 0.02 0.06 0.08 0.09 0.08 0.06 0.04 0.04 0.04 0.02 0.00 0.01 0.01 0.01 0.01 0.02 0.02 0.03 0.04 0.05 0.04 0.06 0.06 0.05 0.09 0.15 0.21 0.29 0.29 0.23 0.16 0.11 0.10 0.09 0.07
0.00 0.00 0.01 0.01 0.01 0.00 0.00 0.00 0.00 0.01 0.02 0.00 0.00 0.00 0.02 0.05 0.03 0.03 0.03 0.03 0.03 0.02 0.02 0.03 0.01 0.01 0.01 0.01 0.01 0.02 0.02 0.03 0.04 0.04 0.03 0.03 0.04 0.04 0.05 0.07 0.11 0.19 0.19 0.16 0.14 0.12 0.09 0.06 0.04
0.01 0.00 0.00 0.01 0.01 0.00 0.00 0.00 0.00 0.00 0.01 0.00 0.00 0.01 0.04 0.03 0.01 0.01 0.02 0.02 0.02 0.01 0.01 0.02 0.03 0.01 0.01 0.02 0.02 0.02 0.02 0.03 0.03 0.02 0.02 0.02 0.03 0.04 0.04 0.04 0.05 0.08 0.11 0.12 0.13 0.11 0.08 0.06 0.05
0.01 0.01 0.01 0.01 0.01 0.00 0.00 0.00 0.00 0.00 0.00 0.00 0.00 0.00 0.01 0.00 0.00 0.02 0.05 0.03 0.04 0.04 0.03 0.02 0.02 0.02 0.02 0.02 0.02 0.03 0.03 0.03 0.03 0.04 0.03 0.04 0.07 0.06 0.05 0.03 0.03 0.04 0.05 0.08 0.11 0.12 0.10 0.07 0.06
0.00 0.00 0.01 0.00 0.00 0.00 0.00 0.00 0.00 0.00 0.00 0.01 0.01 0.01 0.00 0.00 0.01 0.04 0.07 0.07 0.08 0.07 0.04 0.02 0.02 0.01 0.02 0.03 0.02 0.03 0.02 0.03 0.04 0.06 0.06 0.05 0.06 0.06 0.06 0.04 0.04 0.04 0.04 0.05 0.08 0.14 0.13 0.08 0.05
0.00 0.00 0.00 0.00 0.00 0.00 0.00 0.00 0.00 0.00 0.01 0.03 0.03 0.01 0.01 0.02 0.02 0.02 0.05 0.07 0.06 0.04 0.03 0.03 0.03 0.04 0.03 0.03 0.02 0.02 0.03 0.05 0.04 0.05 0.06 0.05 0.04 0.05 0.09 0.09 0.07 0.05 0.04 0.04 0.05 0.10 0.10 0.04 0.02
0.00 0.00 0.00 0.00 0.00 0.00 0.00 0.00 0.00 0.00 0.01 0.01 0.01 0.00 0.01 0.01 0.01 0.01 0.02 0.03 0.04 0.03 0.03 0.01 0.02 0.04 0.05 0.03 0.02 0.02 0.03 0.04 0.04 0.05 0.05 0.04 0.04 0.08 0.15 0.16 0.11 0.08 0.07 0.06 0.05 0.06 0.04 0.02 0.01
0.00 0.00 0.00 0.00 0.00 0.00 0.00 0.00 0.00 0.01 0.00 0.01 0.02 0.02 0.01 0.01 0.01 0.01 0.01 0.01 0.02 0.03 0.03 0.02 0.02 0.05 0.04 0.03 0.02 0.01 0.02 0.03 0.02 0.04 0.04 0.03 0.03 0.05 0.09 0.11 0.10 0.08 0.07 0.07 0.08 0.06 0.04 0.03 0.02
0.00 0.00 0.00 0.00 0.00 0.00 0.00 0.00 0.01 0.01 0.00 0.01 0.01 0.02 0.01 0.01 0.00 0.01 0.01 0.01 0.02 0.02 0.03 0.02 0.02 0.04 0.05 0.04 0.03 0.03 0.02 0.03 0.02 0.03 0.04 0.03 0.02 0.03 0.04 0.05 0.05 0.05 0.04 0.06 0.06 0.06 0.05 0.04 0.04
0.00 0.00 0.01 0.00 0.00 0.00 0.01 0.01 0.01 0.00 0.00 0.00 0.00 0.01 0.01 0.01 0.01 0.01 0.01 0.01 0.01 0.02 0.02 0.02 0.01 0.02 0.04 0.04 0.04 0.04 0.04 0.03 0.02 0.03 0.04 0.03 0.02 0.03 0.04 0.03 0.03 0.03 0.03 0.03 0.05 0.07 0.04 0.04 0.04
0.01 0.02 0.05 0.01 0.01 0.01 0.01 0.03 0.01 0.00 0.00 0.00 0.00 0.00 0.02 0.02 0.01 0.01 0.01 0.01 0.00 0.01 0.01 0.01 0.02 0.02 0.03 0.04 0.04 0.03 0.04 0.03 0.02 0.03 0.04 0.03 0.02 0.02 0.03 0.03 0.02 0.02 0.02 0.03 0.05 0.04 0.04 0.04 0.04
0.01 0.02 0.03 0.01 0.00 0.00 0.01 0.04 0.01 0.01 0.01 0.00 0.01 0.01 0.03 0.03 0.02 0.01 0.01 0.01 0.01 0.01 0.01 0.01 0.03 0.03 0.03 0.02 0.02 0.03 0.03 0.03 0.03 0.03 0.03 0.03 0.02 0.02 0.03 0.03 0.04 0.03 0.02 0.03 0.03 0.04 0.05 0.05 0.04
0.02 0.01 0.02 0.01 0.00 0.00 0.01 0.01 0.01 0.01 0.01 0.01 0.01 0.02 0.03 0.04 0.03 0.02 0.02 0.02 0.01 0.01 0.01 0.01 0.03 0.04 0.04 0.04 0.02 0.03 0.03 0.04 0.03 0.03 0.04 0.03 0.02 0.02 0.03 0.02 0.04 0.03 0.03 0.03 0.04 0.05 0.06 0.06 0.06
0.01 0.01 0.01 0.01 0.00 0.00 0.01 0.01 0.00 0.00 0.00 0.00 0.01 0.02 0.03 0.04 0.04 0.03 0.04 0.03 0.01 0.01 0.02 0.02 0.03 0.05 0.04 0.05 0.03 0.02 0.02 0.03 0.03 0.03 0.02 0.01 0.02 0.02 0.03 0.03 0.04 0.04 0.04 0.04 0.05 0.07 0.07 0.06 0.05
0.00 0.01 0.00 0.00 0.00 0.01 0.01 0.01 0.00 0.00 0.00 0.00 0.00 0.00 0.01 0.03 0.05 0.04 0.04 0.04 0.03 0.02 0.02 0.03 0.04 0.04 0.03 0.04 0.03 0.03 0.02 0.02 0.03 0.03 0.03 0.01 0.01 0.01 0.02 0.03 0.03 0.03 0.05 0.04 0.05 0.07 0.06 0.05 0.05
0.00 0.00 0.00 0.00 0.00 0.00 0.00 0.01 0.01 0.00 0.00 0.00 0.00 0.00 0.00 0.01 0.02 0.04 0.05 0.04 0.03 0.03 0.03 0.03 0.04 0.04 0.03 0.03 0.03 0.03 0.03 0.02 0.03 0.04 0.04 0.02 0.01 0.01 0.02 0.02 0.03 0.03 0.04 0.04 0.04 0.04 0.04 0.05 0.05
0.00 0.00 0.00 0.00 0.00 0.00 0.01 0.02 0.02 0.01 0.01 0.00 0.00 0.00 0.00 0.01 0.02 0.01 0.03 0.04 0.04 0.03 0.04 0.04 0.04 0.04 0.03 0.02 0.03 0.03 0.04 0.03 0.03 0.03 0.03 0.02 0.01 0.01 0.01 0.01 0.02 0.03 0.03 0.04 0.03 0.04 0.03 0.04 0.04
0.00 0.00 0.00 0.00 0.00 0.00 0.01 0.02 0.03 0.03 0.02 0.00 0.00 0.00 0.00 0.01 0.01 0.01 0.02 0.02 0.03 0.03 0.04 0.05 0.05 0.05 0.05 0.05 0.05 0.05 0.04 0.05 0.04 0.03 0.04 0.03 0.02 0.01 0.01 0.01 0.02 0.02 0.03 0.03 0.03 0.04 0.03 0.04 0.04
0.00 0.00 0.00 0.00 0.01 0.01 0.01 0.02 0.04 0.04 0.02 0.00 0.00 0.00 0.00 0.00 0.00 0.00 0.01 0.02 0.04 0.02 0.03 0.04 0.05 0.06 0.06 0.06 0.06 0.05 0.04 0.06 0.07 0.06 0.05 0.03 0.02 0.02 0.01 0.01 0.01 0.02 0.02 0.02 0.02 0.02 0.03 0.04 0.04
0.00 0.01 0.01 0.01 0.02 0.01 0.01 0.01 0.02 0.01 0.01 0.00 0.00 0.00 0.00 0.00 0.00 0.00 0.00 0.01 0.02 0.03 0.02 0.03 0.04 0.05 0.06 0.07 0.06 0.05 0.04 0.04 0.06 0.05 0.05 0.04 0.03 0.03 0.02 0.02 0.02 0.03 0.02 0.02 0.02 0.03 0.04 0.04 0.04
0.00 0.01 0.01 0.02 0.01 0.01 0.01 0.02 0.03 0.04 0.01 0.00 0.00 0.00 0.00 0.00 0.00 0.00 0.00 0.01 0.01 0.02 0.02 0.02 0.03 0.03 0.04 0.04 0.05 0.05 0.04 0.03 0.05 0.06 0.04 0.04 0.04 0.03 0.03 0.03 0.03 0.03 0.02 0.02 0.03 0.02 0.03 0.04 0.04
0.00 0.00 0.01 0.01 0.01 0.01 0.01 0.02 0.01 0.01 0.02 0.00 0.00 0.00 0.00 0.00 0.00 0.00 0.00 0.01 0.01 0.03 0.03 0.03 0.03 0.03 0.03 0.03 0.03 0.04 0.05 0.05 0.06 0.08 0.07 0.04 0.04 0.04 0.05 0.05 0.03 0.03 0.02 0.02 0.03 0.02 0.03 0.04 0.04
0.00 0.00 0.00 0.01 0.01 0.01 0.01 0.03 0.02 0.02 0.02 0.01 0.00 0.00 0.01 0.03 0.03 0.01 0.02 0.01 0.01 0.03 0.04 0.04 0.03 0.02 0.02 0.02 0.02 0.03 0.05 0.06 0.07 0.08 0.09 0.07 0.06 0.06 0.07 0.07 0.05 0.04 0.03 0.02 0.02 0.03 0.02 0.03 0.04
0.00 0.00 0.00 0.00 0.00 0.01 0.02 0.03 0.02 0.03 0.03 0.03 0.02 0.02 0.06 0.09 0.04 0.02 0.02 0.01 0.02 0.03 0.03 0.04 0.02 0.02 0.01 0.01 0.02 0.02 0.04 0.05 0.06 0.07 0.08 0.08 0.06 0.07 0.08 0.08 0.07 0.07 0.06 0.05 0.05 0.04 0.03 0.03 0.04
0.00 0.00 0.00 0.00 0.01 0.00 0.01 0.02 0.01 0.01 0.02 0.03 0.03 0.04 0.04 0.03 0.02 0.01 0.01 0.02 0.02 0.03 0.03 0.04 0.03 0.02 0.02 0.02 0.02 0.03 0.04 0.05 0.05 0.06 0.06 0.07 0.07 0.07 0.08 0.08 0.08 0.07 0.06 0.06 0.05 0.05 0.04 0.06 0.08
MSLP
1004.58 1005.13 1005.61 1005.86 1005.78 1005.36 1004.64 1003.74 1002.85 1002.12 1001.70 1001.64 1001.94 1002.51 1003.23 1003.97 1004.63 1005.11 1005.41 1005.55 1005.58 1005.55 1005.50 1005.45 1005.41 1005.36 1005.28 1005.16 1004.96 1004.65 1004.19 1003.53 1002.61 1001.42 999.95 998.26 996.47 994.74 993.29 992.32 991.96 992.28 993.22 994.65 996.36 998.13 999.71 1000.96 1001.82
1004.83 1005.33 1005.67 1005.72 1005.42 1004.77 1003.88 1002.87 1001.95 1001.27 1000.95 1001.03 1001.47 1002.18 1003.01 1003.83 1004.54 1005.08 1005.43 1005.62 1005.71 1005.73 1005.74 1005.74 1005.73 1005.70 1005.64 1005.53 1005.33 1005.02 1004.54 1003.83 1002.83 1001.51 999.86 997.97 995.97 994.05 992.44 991.37 990.99 991.37 992.44 994.05 995.97 997.93 999.69 1001.07 1002.02
1004.99 1005.41 1005.59 1005.45 1004.94 1004.11 1003.09 1002.03 1001.13 1000.55 1000.36 1000.59 1001.16 1001.97 1002.87 1003.73 1004.45 1004.99 1005.34 1005.56 1005.68 1005.76 1005.82 1005.88 1005.92 1005.93 1005.90 1005.81 1005.63 1005.32 1004.85 1004.13 1003.10 1001.73 1000.02 998.05 995.95 993.95 992.28 991.19 990.82 991.24 992.39 994.09 996.11 998.16 999.99 1001.42 1002.40
1005.03 1005.34 1005.38 1005.06 1004.39 1003.43 1002.35 1001.30 1000.48 1000.02 999.99 1000.36 1001.05 1001.93 1002.85 1003.69 1004.38 1004.88 1005.21 1005.42 1005.57 1005.69 1005.81 1005.92 1006.02 1006.08 1006.08 1006.02 1005.86 1005.59 1005.14 1004.46 1003.47 1002.14 1000.48 998.56 996.51 994.57 992.94 991.89 991.56 992.00 993.15 994.84 996.83 998.84 1000.62 1002.01 1002.94
1004.96 1005.16 1005.06 1004.60 1003.82 1002.80 1001.72 1000.74 1000.04 999.74 999.86 1000.36 1001.13 1002.04 1002.95 1003.74 1004.36 1004.79 1005.08 1005.28 1005.44 1005.60 1005.77 1005.95 1006.10 1006.20 1006.24 1006.20 1006.07 1005.82 1005.43 1004.82 1003.94 1002.74 1001.24 999.50 997.64 995.87 994.39 993.44 993.16 993.59 994.67 996.24 998.06 999.90 1001.52 1002.77 1003.61
1004.81 1004.90 1004.68 1004.13 1003.29 1002.28 1001.26 1000.40 999.84 999.69 999.95 1000.55 1001.38 1002.29 1003.15 1003.87 1004.41 1004.77 1005.01 1005.19 1005.37 1005.57 1005.79 1006.02 1006.21 1006.35 1006.40 1006.37 1006.26 1006.04 1005.71 1005.20 1004.48 1003.49 1002.24 1000.78 999.21 997.71 996.45 995.65 995.41 995.79 996.72 998.08 999.64 1001.20 1002.57 1003.61 1004.30
1004.62 1004.62 1004.31 1003.71 1002.87 1001.91 1000.99 1000.26 999.86 999.85 1000.21 1000.88 1001.72 1002.60 1003.41 1004.05 1004.52 1004.82 1005.04 1005.22 1005.42 1005.65 1005.92 1006.18 1006.40 1006.54 1006.59 1006.55 1006.43 1006.24 1005.96 1005.57 1005.03 1004.30 1003.35 1002.23 1001.02 999.83 998.84 998.19 998.00 998.29 999.03 1000.10 1001.33 1002.56 1003.62 1004.42 1004.96
1004.44 1004.36 1004.00 1003.39 1002.59 1001.71 1000.90 1000.31 1000.03 1000.12 1000.56 1001.25 1002.07 1002.91 1003.65 1004.23 1004.65 1004.93 1005.15 1005.35 1005.58 1005.86 1006.16 1006.44 1006.65 1006.77 1006.79 1006.72 1006.58 1006.39 1006.17 1005.89 1005.53 1005.05 1004.43 1003.67 1002.82 1001.97 1001.24 1000.75 1000.58 1000.78 1001.29 1002.06 1002.94 1003.81 1004.57 1005.14 1005.55
1004.30 1004.15 1003.77 1003.17 1002.43 1001.64 1000.95 1000.46 1000.28 1000.43 1000.89 1001.56 1002.34 1003.12 1003.81 1004.36 1004.76 1005.06 1005.30 1005.55 1005.83 1006.14 1006.46 1006.74 1006.94 1007.02 1006.99 1006.87 1006.69 1006.50 1006.32 1006.14 1005.94 1005.70 1005.36 1004.93 1004.41 1003.88 1003.39 1003.04 1002.89 1002.98 1003.29 1003.76 1004.32 1004.88 1005.37 1005.76 1006.07
1004.18 1004.00 1003.61 1003.05 1002.37 1001.67 1001.08 1000.67 1000.54 1000.71 1001.14 1001.76 1002.48 1003.20 1003.85 1004.38 1004.81 1005.15 1005.46 1005.77 1006.10 1006.45 1006.78 1007.05 1007.21 1007.25 1007.17 1007.00 1006.79 1006.58 1006.43 1006.32 1006.26 1006.19 1006.10 1005.93 1005.70 1005.42 1005.13 1004.90 1004.77 1004.77 1004.90 1005.14 1005.44 1005.75 1006.05 1006.32 1006.57
1004.08 1003.88 1003.50 1002.98 1002.37 1001.76 1001.23 1000.87 1000.75 1000.89 1001.26 1001.80 1002.44 1003.11 1003.73 1004.28 1004.75 1005.17 1005.56 1005.95 1006.34 1006.72 1007.05 1007.31 1007.44 1007.44 1007.31 1007.11 1006.88 1006.68 1006.54 1006.49 1006.51 1006.58 1006.65 1006.68 1006.66 1006.57 1006.43 1006.29 1006.18 1006.13 1006.14 1006.21 1006.34 1006.49 1006.67 1006.88 1007.13
1004.00 1003.79 1003.43 1002.96 1002.41 1001.86 1001.37 1001.03 1000.88 1000.96 1001.24 1001.69 1002.25 1002.87 1003.48 1004.06 1004.60 1005.11 1005.58 1006.05 1006.49 1006.90 1007.24 1007.48 1007.59 1007.58 1007.45 1007.25 1007.03 1006.84 1006.73 1006.71 1006.79 1006.93 1007.09 1007.24 1007.33 1007.37 1007.34 1007.27 1007.19 1007.12 1007.07 1007.06 1007.10 1007.18 1007.32 1007.52 1007.80
1003.93 1003.72 1003.40 1002.97 1002.47 1001.97 1001.51 1001.16 1000.96 1000.95 1001.13 1001.48 1001.96 1002.53 1003.14 1003.77 1004.38 1004.97 1005.53 1006.06 1006.55 1006.99 1007.33 1007.58 1007.69 1007.70 1007.60 1007.44 1007.27 1007.12 1007.05 1007.05 1007.15 1007.31 1007.50 1007.68 1007.83 1007.93 1007.97 1007.95 1007.91 1007.85 1007.80 1007.79 1007.81 1007.89 1008.04 1008.27 1008.58
1003.91 1003.71 1003.41 1003.03 1002.58 1002.11 1001.66 1001.29 1001.03 1000.93 1001.00 1001.25 1001.66 1002.18 1002.80 1003.46 1004.14 1004.80 1005.43 1006.02 1006.54 1006.99 1007.35 1007.61 1007.76 1007.82 1007.80 1007.72 1007.64 1007.56 1007.53 1007.56 1007.65 1007.78 1007.94 1008.10 1008.24 1008.35 1008.42 1008.45 1008.45 1008.45 1008.44 1008.47 1008.53 1008.65 1008.84 1009.11 1009.46
1003.98 1003.79 1003.53 1003.19 1002.79 1002.34 1001.90 1001.48 1001.16 1000.96 1000.93 1001.08 1001.41 1001.90 1002.51 1003.20 1003.93 1004.65 1005.34 1005.96 1006.51 1006.96 1007.34 1007.62 1007.83 1007.97 1008.06 1008.10 1008.13 1008.15 1008.17 1008.21 1008.28 1008.36 1008.45 1008.54 1008.63 1008.72 1008.79 1008.86 1008.92 1008.98 1009.05 1009.14 1009.26 1009.44 1009.67 1009.97 1010.34
1004.17 1004.01 1003.78 1003.49 1003.12 1002.70 1002.25 1001.79 1001.39 1001.10 1000.96 1001.02 1001.27 1001.72 1002.33 1003.04 1003.81 1004.57 1005.29 1005.94 1006.49 1006.95 1007.34 1007.66 1007.93 1008.17 1008.37 1008.55 1008.69 1008.81 1008.90 1008.95 1008.98 1008.99 1008.99 1009.00 1009.02 1009.07 1009.14 1009.23 1009.35 1009.47 1009.62 1009.78 1009.97 1010.19 1010.45 1010.77 1011.13
1004.51 1004.37 1004.19 1003.94 1003.62 1003.21 1002.74 1002.24 1001.75 1001.35 1001.11 1001.07 1001.25 1001.65 1002.25 1002.98 1003.77 1004.57 1005.32 1005.97 1006.53 1006.99 1007.39 1007.74 1008.07 1008.39 1008.71 1009.01 1009.27 1009.48 1009.62 1009.68 1009.67 1009.61 1009.53 1009.45 1009.40 1009.41 1009.47 1009.58 1009.75 1009.94 1010.15 1010.37 1010.60 1010.84 1011.11 1011.42 1011.75
1004.96 1004.88 1004.75 1004.55 1004.26 1003.86 1003.36 1002.78 1002.20 1001.68 1001.32 1001.17 1001.27 1001.63 1002.21 1002.96 1003.79 1004.62 1005.39 1006.06 1006.62 1007.09 1007.49 1007.86 1008.23 1008.62 1009.02 1009.41 1009.77 1010.05 1010.24 1010.31 1010.27 1010.15 1010.00 1009.85 1009.75 1009.72 1009.78 1009.92 1010.12 1010.36 1010.61 1010.87 1011.11 1011.35 1011.60 1011.87 1012.17
1005.50 1005.48 1005.41 1005.27 1005.00 1004.59 1004.03 1003.37 1002.66 1002.01 1001.51 1001.24 1001.26 1001.57 1002.14 1002.90 1003.77 1004.65 1005.47 1006.17 1006.75 1007.22 1007.62 1008.00 1008.39 1008.81 1009.26 1009.72 1010.14 1010.47 1010.69 1010.77 1010.72 1010.58 1010.39 1010.20 1010.07 1010.02 1010.09 1010.25 1010.48 1010.75 1011.02 1011.28 1011.51 1011.72 1011.93 1012.14 1012.39
1006.05 1006.11 1006.11 1006.02 1005.77 1005.33 1004.69 1003.91 1003.06 1002.24 1001.58 1001.18 1001.09 1001.35 1001.91 1002.71 1003.63 1004.59 1005.48 1006.24 1006.86 1007.35 1007.76 1008.13 1008.52 1008.94 1009.41 1009.89 1010.34 1010.71 1010.96 1011.06 1011.02 1010.88 1010.69 1010.50 1010.37 1010.34 1010.41 1010.60 1010.84 1011.12 1011.40 1011.63 1011.83 1011.98 1012.13 1012.28 1012.48
1006.57 1006.71 1006.79 1006.74 1006.49 1006.00 1005.26 1004.33 1003.30 1002.30 1001.46 1000.90 1000.71 1000.90 1001.45 1002.29 1003.30 1004.35 1005.34 1006.20 1006.89 1007.43 1007.85 1008.23 1008.60 1009.01 1009.46 1009.93 1010.39 1010.77 1011.05 1011.19 1011.19 1011.09 1010.93 1010.78 1010.69 1010.69 1010.79 1010.99 1011.25 1011.52 1011.77 1011.97 1012.11 1012.20 1012.28 1012.37 1012.51
1007.01 1007.24 1007.39 1007.38 1007.11 1006.56 1005.70 1004.61 1003.38 1002.17 1001.13 1000.40 1000.08 1000.20 1000.74 1001.62 1002.72 1003.89 1005.01 1005.99 1006.79 1007.41 1007.88 1008.27 1008.63 1009.01 1009.43 1009.88 1010.33 1010.73 1011.04 1011.22 1011.29 1011.26 1011.18 1011.09 1011.06 1011.10 1011.24 1011.45 1011.71 1011.96 1012.18 1012.33 1012.42 1012.45 1012.46 1012.49 1012.59
1007.39 1007.70 1007.91 1007.92 1007.63 1007.00 1006.02 1004.76 1003.34 1001.92 1000.68 999.77 999.31 999.34 999.85 1000.76 1001.93 1003.22 1004.48 1005.61 1006.55 1007.27 1007.82 1008.24 1008.61 1008.97 1009.37 1009.79 1010.23 1010.64 1010.99 1011.24 1011.38 1011.44 1011.45 1011.45 1011.48 1011.58 1011.74 1011.96 1012.21 1012.44 1012.63 1012.74 1012.77 1012.76 1012.72 1012.70 1012.75
1007.74 1008.10 1008.35 1008.37 1008.06 1007.36 1006.28 1004.88 1003.28 1001.67 1000.23 999.14 998.53 998.45 998.90 999.80 1001.03 1002.41 1003.81 1005.08 1006.16 1007.01 1007.66 1008.15 1008.54 1008.91 1009.30 1009.72 1010.15 1010.58 1010.96 1011.28 1011.51 1011.66 1011.76 1011.84 1011.94 1012.07 1012.25 1012.48 1012.71 1012.92 1013.08 1013.16 1013.17 1013.12 1013.05 1013.01 1013.02
1008.09 1008.48 1008.75 1008.76 1008.43 1007.69 1006.54 1005.04 1003.32 1001.56 999.96 998.71 997.93 997.72 998.07 998.91 1000.14 1001.58 1003.06 1004.46 1005.67 1006.66 1007.42 1008.00 1008.45 1008.86 1009.26 1009.67 1010.12 1010.57 1010.99 1011.36 1011.66 1011.90 1012.07 1012.22 1012.36 1012.53 1012.72 1012.93 1013.15 1013.34 1013.48 1013.56 1013.57 1013.52 1013.45 1013.39 1013.38
1008.46 1008.84 1009.09 1009.11 1008.78 1008.04 1006.87 1005.35 1003.58 1001.74 1000.02 998.62 997.69 997.32 997.52 998.25 999.40 1000.82 1002.33 1003.80 1005.12 1006.23 1007.11 1007.80 1008.34 1008.80 1009.24 1009.68 1010.14 1010.61 1011.07 1011.48 1011.84 1012.12 1012.35 1012.54 1012.71 1012.88 1013.07 1013.27 1013.47 1013.65 1013.80 1013.89 1013.92 1013.90 1013.84 1013.80 1013.78
1008.83 1009.15 1009.37 1009.38 1009.08 1008.39 1007.30 1005.83 1004.10 1002.25 1000.49 998.99 997.92 997.37 997.38 997.93 998.93 1000.24 1001.71 1003.18 1004.56 1005.75 1006.74 1007.54 1008.19 1008.73 1009.23 1009.71 1010.20 1010.69 1011.17 1011.61 1011.99 1012.30 1012.55 1012.76 1012.93 1013.10 1013.27 1013.46 1013.65 1013.83 1013.99 1014.11 1014.18 1014.21 1014.20 1014.18 1014.17
1009.15 1009.38 1009.54 1009.56 1009.31 1008.72 1007.76 1006.45 1004.85 1003.10 1001.36 999.82 998.63 997.90 997.69 998.00 998.78 999.90 1001.23 1002.64 1004.01 1005.26 1006.34 1007.24 1008.00 1008.64 1009.21 1009.75 1010.27 1010.78 1011.26 1011.71 1012.09 1012.41 1012.66 1012.86 1013.03 1013.18 1013.33 1013.50 1013.69 1013.88 1014.07 1014.23 1014.36 1014.44 1014.49 1014.51 1014.51
1009.34 1009.44 1009.54 1009.55 1009.38 1008.95 1008.19 1007.10 1005.72 1004.15 1002.52 1001.00 999.73 998.83 998.39 998.43 998.92 999.80 1000.93 1002.20 1003.51 1004.76 1005.90 1006.90 1007.75 1008.50 1009.16 1009.76 1010.32 1010.84 1011.33 1011.76 1012.13 1012.44 1012.68 1012.87 1013.02 1013.16 1013.30 1013.47 1013.65 1013.86 1014.08 1014.28 1014.46 1014.60 1014.69 1014.74 1014.76
1009.35 1009.29 1009.31 1009.32 1009.24 1008.98 1008.46 1007.64 1006.54 1005.21 1003.76 1002.31 1001.00 999.97 999.32 999.08 999.27 999.86 1000.74 1001.84 1003.04 1004.26 1005.43 1006.51 1007.46 1008.31 1009.06 1009.72 1010.32 1010.87 1011.35 1011.78 1012.14 1012.43 1012.66 1012.84 1012.99 1013.12 1013.27 1013.43 1013.63 1013.85 1014.09 1014.32 1014.53 1014.71 1014.83 1014.90 1014.92
Thickness
5852 5856 5856 5849 5830 5817 5820 5837 5851 5849 5848 5857 5857 5848 5833 5823 5811 5797 5826 5835 5829 5819 5810 5803 5799 5795 5792 5789 5787 5784 5782 5780 5779 5777 5776 5775 5775 5774 5773 5772 5772 5771 5770 5769 5768 5767 5765 5764 5764
5858 5862 5856 5841 5817 5802 5820 5843 5847 5849 5856 5862 5858 5848 5835 5826 5831 5825 5829 5832 5829 5820 5811 5803 5797 5794 5791 5788 5785 5783 5781 5779 5777 5776 5774 5774 5773 5773 5772 5772 5770 5769 5768 5767 5766 5764 5763 5762 5762
5859 5863 5846 5832 5819 5811 5822 5846 5851 5859 5864 5859 5849 5846 5833 5824 5830 5828 5831 5834 5829 5821 5811 5802 5797 5793 5790 5787 5784 5781 5779 5777 5776 5774 5773 5772 5772 5771 5772 5771 5769 5768 5767 5766 5764 5762 5761 5760 5760
5859 5858 5846 5830 5820 5839 5848 5852 5858 5856 5857 5860 5850 5835 5832 5838 5836 5834 5837 5836 5829 5820 5811 5802 5797 5793 5790 5786 5783 5780 5778 5776 5774 5773 5772 5771 5770 5769 5770 5769 5767 5766 5765 5764 5762 5761 5760 5759 5758
5861 5846 5829 5822 5832 5852 5863 5863 5862 5852 5848 5850 5846 5826 5821 5835 5841 5839 5838 5835 5827 5820 5811 5802 5797 5793 5789 5786 5782 5779 5777 5774 5773 5771 5770 5769 5768 5767 5767 5765 5765 5763 5762 5761 5761 5760 5759 5758 5758
5847 5840 5818 5815 5835 5855 5864 5867 5862 5851 5847 5849 5842 5827 5820 5834 5835 5836 5837 5833 5827 5819 5810 5802 5797 5793 5789 5785 5781 5778 5775 5773 5772 5770 5769 5767 5767 5765 5765 5764 5762 5761 5760 5759 5759 5758 5758 5757 5757
5838 5828 5820 5826 5837 5847 5858 5868 5858 5849 5843 5847 5848 5826 5818 5828 5834 5837 5836 5832 5828 5821 5812 5804 5798 5792 5788 5784 5781 5777 5774 5772 5771 5769 5768 5767 5766 5765 5764 5762 5761 5759 5758 5758 5758 5757 5757 5756 5756
5851 5832 5822 5829 5832 5842 5862 5865 5862 5853 5844 5856 5853 5826 5814 5825 5835 5836 5833 5830 5826 5821 5814 5808 5801 5795 5790 5785 5781 5777 5774 5772 5770 5768 5767 5766 5765 5765 5763 5762 5760 5759 5758 5757 5757 5756 5756 5756 5756
5854 5822 5814 5827 5836 5845 5861 5857 5859 5863 5851 5849 5848 5840 5835 5836 5835 5830 5826 5823 5820 5817 5814 5810 5804 5798 5794 5789 5782 5778 5774 5772 5770 5768 5767 5766 5765 5765 5764 5762 5760 5759 5758 5757 5756 5756 5755 5755 5755
5840 5814 5822 5845 5853 5852 5855 5853 5853 5849 5838 5833 5833 5834 5838 5834 5830 5824 5819 5815 5813 5811 5811 5809 5805 5801 5796 5792 5784 5781 5778 5774 5771 5770 5768 5767 5767 5766 5765 5762 5761 5759 5758 5757 5756 5756 5755 5754 5756
5841 5826 5836 5848 5857 5855 5850 5850 5856 5843 5828 5829 5824 5825 5829 5828 5825 5822 5818 5816 5813 5811 5809 5807 5804 5800 5796 5792 5787 5783 5780 5776 5773 5771 5769 5768 5767 5766 5765 5762 5760 5759 5758 5757 5757 5756 5755 5756 5757
5838 5841 5846 5849 5854 5850 5847 5848 5845 5842 5836 5843 5838 5833 5828 5823 5822 5820 5817 5815 5814 5811 5808 5806 5803 5799 5795 5791 5788 5784 5781 5777 5774 5771 5769 5768 5767 5765 5764 5762 5760 5759 5758 5758 5758 5756 5756 5757 5758
5834 5838 5846 5850 5849 5847 5845 5841 5839 5838 5845 5845 5838 5832 5827 5824 5822 5822 5821 5817 5813 5809 5806 5805 5802 5798 5793 5790 5787 5784 5780 5777 5773 5770 5768 5767 5766 5764 5763 5762 5760 5759 5758 5757 5756 5755 5754 5755 5755
5836 5838 5842 5845 5844 5843 5835 5835 5834 5835 5845 5840 5833 5827 5826 5824 5822 5818 5816 5813 5810 5806 5804 5803 5800 5797 5792 5788 5785 5783 5780 5776 5773 5770 5767 5766 5765 5763 5761 5759 5758 5757 5756 5755 5754 5753 5752 5752 5752
5836 5825 5826 5835 5838 5839 5833 5818 5825 5840 5842 5833 5829 5826 5824 5823 5820 5813 5813 5811 5809 5805 5803 5800 5799 5795 5791 5787 5784 5782 5779 5776 5773 5769 5766 5764 5763 5761 5760 5758 5756 5755 5755 5754 5753 5752 5751 5750 5749
5820 5811 5802 5823 5835 5836 5820 5797 5824 5840 5835 5827 5826 5824 5819 5818 5818 5816 5813 5811 5809 5805 5800 5798 5798 5793 5788 5785 5782 5781 5778 5776 5772 5769 5766 5764 5762 5760 5758 5756 5755 5754 5753 5752 5751 5749 5747 5746 5745
5801 5792 5796 5815 5836 5834 5821 5803 5822 5837 5830 5824 5823 5821 5816 5813 5813 5814 5813 5810 5806 5802 5798 5795 5794 5790 5786 5783 5780 5778 5776 5774 5771 5768 5765 5762 5760 5758 5756 5755 5753 5752 5751 5750 5749 5746 5744 5742 5741
5786 5794 5800 5808 5828 5828 5814 5811 5821 5830 5828 5823 5821 5817 5813 5809 5808 5810 5809 5807 5803 5799 5795 5792 5790 5786 5784 5780 5777 5775 5773 5771 5768 5766 5763 5760 5758 5756 5754 5753 5751 5750 5749 5747 5745 5743 5742 5740 5738
5800 5798 5800 5813 5830 5820 5810 5809 5814 5824 5823 5820 5818 5814 5810 5807 5808 5807 5805 5802 5798 5794 5790 5787 5784 5782 5779 5775 5772 5768 5766 5766 5765 5763 5761 5758 5756 5754 5752 5751 5750 5748 5746 5744 5743 5741 5738 5737 5737
5799 5791 5795 5809 5823 5815 5805 5805 5813 5816 5818 5819 5816 5811 5808 5805 5803 5800 5799 5797 5792 5789 5786 5783 5780 5778 5776 5773 5771 5768 5766 5764 5762 5760 5758 5755 5753 5752 5751 5748 5747 5746 5743 5741 5740 5738 5735 5734 5734
5793 5789 5794 5796 5808 5810 5799 5788 5798 5809 5816 5817 5815 5813 5808 5803 5798 5795 5792 5790 5788 5784 5782 5779 5776 5774 5772 5770 5768 5766 5762 5760 5757 5754 5752 5752 5750 5749 5747 5746 5745 5743 5741 5738 5736 5735 5732 5729 5730
5783 5801 5799 5796 5789 5786 5790 5767 5787 5799 5801 5804 5805 5806 5803 5800 5796 5793 5789 5786 5784 5781 5779 5776 5772 5770 5768 5766 5763 5759 5755 5752 5752 5751 5750 5748 5747 5746 5744 5743 5741 5740 5738 5736 5734 5733 5731 5728 5725
5790 5803 5798 5792 5784 5777 5783 5771 5778 5794 5786 5792 5798 5801 5801 5798 5793 5790 5787 5785 5783 5780 5776 5772 5768 5765 5763 5761 5759 5756 5753 5751 5750 5748 5746 5744 5744 5743 5742 5740 5738 5736 5734 5733 5731 5730 5728 5727 5724
5798 5792 5789 5786 5776 5755 5772 5767 5768 5783 5786 5791 5796 5797 5796 5794 5792 5788 5785 5782 5778 5776 5773 5768 5763 5759 5758 5756 5754 5751 5748 5746 5744 5742 5740 5739 5739 5738 5737 5737 5734 5732 5730 5729 5728 5727 5725 5723 5722
5786 5767 5751 5750 5749 5754 5780 5768 5770 5789 5796 5798 5793 5792 5791 5790 5786 5782 5779 5775 5772 5770 5766 5763 5757 5753 5752 5750 5748 5746 5744 5742 5740 5738 5737 5736 5734 5733 5733 5732 5730 5728 5727 5726 5725 5723 5721 5720 5718
5774 5766 5741 5731 5743 5759 5774 5763 5773 5792 5795 5797 5795 5790 5786 5782 5780 5776 5773 5769 5766 5764 5761 5756 5751 5747 5745 5743 5741 5740 5739 5738 5737 5735 5734 5733 5732 5730 5730 5728 5726 5724 5723 5723 5721 5720 5718 5716 5715
5765 5764 5771 5752 5751 5748 5758 5765 5769 5782 5779 5781 5781 5779 5773 5772 5771 5769 5766 5763 5760 5757 5753 5749 5745 5741 5739 5737 5735 5735 5734 5732 5731 5731 5730 5729 5728 5728 5726 5724 5723 5721 5720 5719 5717 5716 5715 5713 5712
5776 5771 5761 5747 5729 5727 5744 5750 5752 5756 5761 5767 5766 5765 5764 5761 5760 5761 5758 5755 5752 5750 5747 5744 5740 5736 5734 5732 5730 5730 5728 5727 5726 5725 5724 5723 5723 5723 5721 5719 5718 5717 5715 5714 5713 5712 5711 5709 5709
5762 5758 5754 5750 5746 5726 5722 5733 5757 5753 5752 5752 5754 5753 5753 5748 5749 5749 5747 5746 5745 5742 5739 5735 5733 5729 5727 5725 5724 5723 5723 5722 5720 5719 5719 5718 5717 5716 5715 5714 5713 5711 5710 5710 5708 5707 5707 5705 5704
5761 5755 5748 5728 5726 5732 5724 5725 5754 5752 5751 5747 5742 5741 5741 5742 5742 5740 5737 5735 5732 5730 5728 5726 5723 5721 5719 5719 5717 5716 5717 5716 5714 5713 5712 5713 5712 5712 5710 5709 5707 5706 5706 5705 5704 5702 5702 5701 5700